Location: Melque
(41.0517°N, 4.4694°W)
Time: 15:08:55
(UTC+00:00)

Cosmos 2219 - Pass Details

Date: 11 December 2025
Orbit: 830 x 860 km, 71.1° (Epoch: 16 January)

Event Time Altitude Azimuth Distance (km) Brightness Sun altitude
Rises 19:51:02 0° 328° (NNW) 3,436 6.7 -33.3°
Reaches altitude 10° 19:53:39 10° 321° (NW) 2,498 6.0 -33.8°
Maximum altitude 19:58:53 38° 255° (WSW) 1,298 4.5 -34.8°
Enters shadow 20:00:29 31° 221° (SW) 1,452 4.6 -35.1°
